#timestamp,LO_Frequency,Hit,StdDev 
1615255215.7,286047002.7,N
1615255235.6,286047004.2,N
1615255255.4,286047003.0,N
1615255275.2,286047004.0,N
1615255295.1,286046996.8,N
1615255296.0,286046996.8,N
1615255315.8,286046996.1,N
1615255335.7,286046999.4,N
1615255355.5,286046998.7,N
1615255375.3,286047000.7,N
1615255395.2,286046995.3,N
1615255415.0,286046997.4,N
1615255415.9,286046997.4,N
1615255435.7,286046997.4,N
1615255455.6,286046996.0,N
1615255475.4,286046991.4,Y
1615255495.3,286046987.0,P
1615255515.1,286046990.7,N
1615255535.8,286046992.7,N
1615255555.7,286046988.2,N
1615255575.5,286046983.0,Y
1615255595.4,286046984.0,P
1615255615.2,286046988.2,P
1615255635.0,286046988.5,P
1615255635.9,286046988.5,Y
1615255655.8,286047009.0,P
1615255675.6,286047010.4,N
1615255695.5,286047003.9,N
1615255715.3,286047001.7,N
1615255735.1,286047003.3,N
1615255755.9,286047008.6,N
1615255775.7,286047012.4,N
1615255795.5,286047009.4,N
1615255815.4,286047014.9,N
1615255835.2,286047016.6,N
1615255855.1,286047020.0,N
1615255856.0,286047020.0,N
1615255875.8,286047014.3,N
1615255895.6,286047014.5,N
1615255915.5,286047014.4,N
1615255935.3,286047019.6,N
1615255955.1,286047024.7,Y
1615255975.9,286047011.8,P
1615255995.7,286047013.2,P
1615256015.6,286047010.3,P
1615256035.4,286047001.5,N
1615256055.2,286047006.2,N
1615256075.1,286047010.7,N
1615256076.0,286047010.7,N
1615256095.8,286047011.8,Y
1615256115.7,286047005.0,P
1615256135.5,286047007.1,P
1615256155.3,286047010.3,P
1615256175.2,286047011.6,Y
1615256195.0,286047003.6,P
1615256195.9,286047003.6,N
1615256215.7,286047003.1,N
1615256235.6,286047000.0,N
1615256255.4,286046999.5,N
1615256275.3,286046994.8,N
1615256295.1,286046989.6,N
1615256296.0,286046989.6,N
1615256315.8,286046986.6,N
1615256335.7,286046989.0,N
1615256355.5,286046989.8,N
1615256375.3,286046986.5,N
1615256395.2,286046983.9,N
1615256415.0,286046980.5,N
1615256415.9,286046980.5,N
1615256435.8,286046984.5,N
1615256455.6,286046985.8,N
1615256475.4,286046985.3,N
1615256495.3,286046987.4,N
1615256515.1,286046991.8,N
1615256535.9,286046988.8,N
1615256555.7,286046987.2,N
1615256575.5,286046988.2,N
1615256595.4,286046985.8,N
1615256615.2,286046986.3,N
1615256635.0,286046992.4,N
1615256635.9,286046992.4,N
1615256655.8,286046996.6,N
1615256675.6,286046998.0,N
1615256695.5,286046997.6,N
1615256715.3,286046994.8,N
1615256735.1,286046999.6,N
1615256755.9,286047000.5,N
1615256775.7,286046994.9,N
1615256795.6,286046997.3,N
1615256815.4,286046992.4,N
1615256835.2,286046997.0,N
1615256855.1,286046994.2,N
1615256856.0,286046994.2,N
1615256875.8,286046991.2,N
1615256895.6,286046984.5,N
1615256915.5,286046989.7,N
1615256935.3,286046990.1,N
1615256955.2,286046990.8,N
1615256975.9,286046994.8,N
1615256995.7,286046998.6,N
1615257015.6,286047004.1,N
1615257035.4,286047002.7,N
1615257055.2,286046997.6,N
1615257075.1,286046996.2,N
1615257076.0,286046996.2,N
1615257095.8,286046996.2,N
1615257115.7,286046997.9,N
1615257135.5,286046993.6,N
1615257155.3,286046997.9,N
1615257175.2,286047000.3,N
1615257195.0,286047003.4,N
1615257195.9,286047003.4,N
1615257215.7,286047008.3,N
1615257235.6,286047009.2,N
1615257255.4,286047007.1,N
1615257275.3,286047005.8,N
1615257295.1,286047005.1,N
1615257296.0,286047005.1,N
1615257315.8,286047004.7,N
1615257335.7,286047008.8,N
1615257355.5,286047008.8,N
1615257375.3,286047006.1,N
1615257395.2,286047008.6,N
1615257415.0,286047012.1,N
1615257415.9,286047012.1,N
1615257435.8,286047011.6,N
1615257455.6,286047011.8,N
1615257475.4,286047013.8,N
1615257495.3,286047013.0,N
1615257515.1,286047015.4,N
1615257535.8,286047016.8,N
1615257555.7,286047009.4,N
1615257575.5,286047009.7,N
1615257595.4,286047014.6,N
1615257615.2,286047010.3,N
1615257635.0,286047009.8,N
1615257635.9,286047009.8,N
1615257655.8,286047010.4,N
1615257675.6,286047010.5,N
1615257695.4,286047009.2,N
1615257715.3,286047002.9,N
1615257735.1,286047006.6,N
1615257755.9,286047009.9,Y
1615257775.7,286046996.1,P
1615257795.5,286046993.6,N
1615257815.4,286046991.1,N
1615257835.2,286046996.2,N
1615257855.0,286046998.9,N
1615257856.0,286046998.9,N
1615257875.8,286047003.9,N
1615257895.6,286047002.8,N
1615257915.5,286047003.3,N
1615257935.3,286047003.9,N
1615257955.1,286046997.6,N
1615257975.9,286046994.9,N
1615257995.7,286046998.1,N
1615258015.6,286046997.6,N
1615258035.4,286046997.2,N
1615258055.3,286046998.7,N
1615258075.1,286047003.8,N
1615258076.0,286047003.8,N
1615258095.8,286046998.8,N
1615258115.7,286046993.5,N
1615258135.5,286046996.4,N
1615258155.3,286046997.4,N
1615258175.2,286046999.4,N
1615258195.0,286047007.2,N
1615258195.9,286047007.2,N
1615258215.8,286046995.0,N
1615258235.6,286046997.4,N
1615258255.4,286047001.8,N
1615258275.3,286046994.4,N
1615258295.1,286047001.1,N
1615258315.9,286047001.9,N
1615258335.7,286046996.5,N
1615258355.5,286046995.7,N
1615258375.4,286046990.8,N
1615258395.2,286046990.8,N
1615258415.0,286046994.7,N
1615258416.0,286046994.7,N
1615258435.8,286046999.5,N
1615258455.6,286046999.1,N
1615258475.5,286046990.7,N
1615258495.3,286046986.4,Y
1615258515.1,286046996.5,P
1615258535.9,286047000.6,N
1615258555.7,286047004.5,N
1615258575.6,286047010.6,Y
1615258595.4,286047012.8,P
1615258615.2,286047012.4,N
1615258635.1,286047014.0,N
1615258636.0,286047014.0,N
1615258655.8,286047008.3,N
1615258675.7,286047011.2,N
1615258695.5,286047003.3,N
1615258715.3,286047000.4,N
1615258735.2,286047001.8,N
1615258755.0,286047000.9,N
1615258755.9,286047000.9,N
1615258775.8,286047002.1,N
1615258795.6,286046998.8,N
